Погода в Кегейль

Узбекистан     42°46′41″N   59°36′38″E
темп.,
°C
ветер,
м/с
пор.,
м/с
влажн.,
%
обл.,
%
осадки,
мм/ч
давл.,
гПа
погр.,
м
3 марта, ср
ср323:00+3с225065 0.0 102723
02:00+2всв115569 0.0 102722
05:00+2ю346983 0.0 102555
08:00+1ю457662 0.0 102481
11:00+6ююз555734 0.0 1024839
14:00+9ююз554560 0.0 10221304
17:00+10ююз454047 0.0 10201693
20:00+9ююз455490 0.0 1019502
4 марта, чт
чт423:00+8ююз226490 0.0 101984
02:00+7вюв126999 0.1 1017126
05:00+6в237099 0.3 101658
08:00+3ссз7895100 1.1 1017266
11:00+5ссз5781100 1.6 1020646
14:00+9сз784543 0.0 10211303
17:00+8зсз9114753 0.0 10231659
20:00+5зсз575411 0.0 1026802
5 марта, пт
пт523:00+3зсз47616 0.0 1028241
02:00+1зсз22650 0.0 102922
05:00−1ю11720 0.0 102922
08:000юв34660 0.0 102946
11:00+5юв45430 0.0 1028702
14:00+9юв45370 0.0 10251409
17:00+11вюв443338 0.0 10231620
20:00+8всв71050100 0.0 1022558
6 марта, сб
сб623:00+7всв5854100 0.0 1022347
02:00+5всв5956100 0.0 1020296
05:00+4св5857100 0.0 1019221
08:00+3ссв5959100 0.0 1020239
11:00+7св5644100 0.0 1021638
14:00+9с5535100 0.0 10201102
17:00+10с5534100 0.0 10201267
20:00+6св475339 0.0 1020239
7 марта, вс
вс723:00+4всв336220 0.0 102170
02:00+2юв33660 0.0 102042
05:00+1ююв34660 0.0 101840
08:00+1ююв45620 0.0 101888
11:00+7ююв573947 0.0 1017469
14:00+12ю5627100 0.0 10151235
17:00+12ю4523100 0.0 10131389
20:00+10ююз2331100 0.0 101426